sat.trackr.live / text

‹ back to catalog

BRO-19

NORAD 68422 · 2026-067G

PAYLOAD ACTIVE UNKNOWN

§ Identity

Operator
Country
FR
Launch date
2026-03-30
Launch site
AFWTR
Launch vehicle
Mass (kg)
RCS (m²)

External: N2YO · Heavens-Above · Gunter

§ Orbital elements

Epoch: 2026-05-24T20:34:14.756736Z

Period
94.82 min
Inclination
97.4467°
Eccentricity
0.0001714
Mean motion
15.18617793 rev/d
Perigee alt
508.8 km
Apogee alt
511.2 km
Semi-major
6,888.2 km
B*
1.5396e-4
RAAN
103.6572°
Arg perigee
60.6650°
Mean anomaly
299.4755°
Rev number
840

§ Raw data

BRO-191 68422U 26067G   26144.85711524  .00003118  00000+0  15396-3 0  99922 68422  97.4467 103.6572 0001714  60.6650 299.4755 15.18617793  8402

JSON: /api/v1/satellites/68422 · /tle

For live sub-satellite position, see the globe view (requires WebGL).

§ Visibility from observer

Set your observer location to see the next 7 days of passes ≥ 10°. The values pass through the URL so the page stays shareable.

No JS? Fill the form by hand. The geolocation button needs JavaScript.